{"data":{"norad_id":58416,"epoch":"2026-05-24T20:24:04.009824Z","epoch_age_seconds":91210,"freshness":"FRESH","line1":"1 58416U 23180Q   26144.85004641  .00002902  00000+0  11497-3 0  9990","line2":"2 58416  43.0019 342.4330 0001408 267.7210  92.3481 15.27573902139270","mean_motion":15.27573902,"eccentricity":0.0001408,"inclination_deg":43.0019,"raan_deg":342.433,"arg_perigee_deg":267.721,"mean_anomaly_deg":92.3481,"bstar":0.00011497,"rev_number":13927,"period_min":94.267125021883,"perigee_km":482.10129813286,"apogee_km":484.03341327942,"semimajor_km":6861.2043557061,"source":"CELESTRAK","updated_at":"2026-05-25T13:38:18.619537Z"}}